www.pogodaiklimat.ru

Погода и климат >> Архив погоды >> Великобритания >> Шоберинесс


ПОГОДА в Шоберинессе

  • Прогноз погоды в Шоберинессе
  • Монитор погоды в Шоберинессе

АРХИВ ПОГОДЫ в Шоберинессе

Время (UTC), дата Ветер
(напр.,м/с)
 
Видим.   Явления Облачность Т
(С)
Тd
(С)
f
(%)
Тe
(С)
Тes
(С)
Комфортность P
(гПа)
Po
(гПа)
Тmin
(С)
Tmax
(С)
R
(мм)
R24
(мм)
S
(см)
22 11.06 С 4 14 км н/о +12.4 +11.5 94 +10 +10 1012.3 1012.1
23 11.06 С 4 18 км н/о +12.9 +11.6 92 +11 +11 1011.6 1011.4
00 12.06 С 4 12 км н/о +12.3 +11.2 93 +10 +10 1011.5 1011.3
01 12.06 СЗ 3 8000 м дымка н/о +11.2 +10.6 96 +9 +9 1011.3 1011.0
02 12.06 С 3 13 км н/о +11.7 +11.3 97 +10 +10 1011.0 1010.7
03 12.06 С 3 12 км н/о +11.7 +11.1 96 +10 +10 1010.7 1010.5
04 12.06 С 4 11 км н/о +11.5 +10.7 95 +9 +9 1010.6 1010.4
05 12.06 С 3 13 км н/о +11.2 +10.4 95 +9 +9 1010.5 1010.2
06 12.06 С 2 16 км н/о +11.3 +10.5 95 +10 +10 1010.3 1010.1 +11.1
07 12.06 С 3 45 км н/о +12.3 +10.8 91 +11 +11 1010.0 1009.8
08 12.06 С 3 40 км н/о +13.4 +11.2 87 +12 +12 1009.7 1009.4
09 12.06 С 2 30 км н/о +14.0 +11.0 82 +13 +13 1009.5 1009.3
10 12.06 С 3 30 км слаб. ливневой дождь н/о +14.0 +11.0 82 +13 +13 1009.9 1009.6
11 12.06 С 3 8000 м дождь н/о +12.9 +11.6 92 +11 +11 1010.0 1009.7
12 12.06 С 3 6000 м дождь н/о +12.5 +11.3 92 +11 +11 1009.8 1009.6 3
13 12.06 С 3 10 км дождь н/о +12.3 +10.7 90 +11 +11 1009.6 1009.4
14 12.06 СВ 3 12 км дождь н/о +12.5 +10.8 89 +11 +11 1009.7 1009.5
15 12.06 СВ 3 12 км слаб. дождь н/о +12.8 +11.4 91 +12 +12 1009.6 1009.3
16 12.06 СВ 2 19 км слаб. морось н/о +13.3 +12.2 93 +12 +12 1009.0 1008.7
17 12.06 В 2 45 км слаб. дождь н/о +13.5 +11.7 89 +13 +13 1008.5 1008.2
18 12.06 ЮВ 3 40 км слаб. дождь н/о +13.1 +11.7 91 +12 +12 1008.1 1007.9 +14.3 8
19 12.06 ЮВ 3 35 км в посл. час дождь н/о +12.8 +11.6 92 +12 +12 1008.0 1007.8
20 12.06 ЮВ 3 45 км в посл. час дождь н/о +12.5 +11.3 92 +11 +11 1007.8 1007.6
21 12.06 ЮВ 2 50 км н/о +12.9 +11.6 92 +12 +12 1008.0 1007.8
22 12.06 Ю 4 27 км н/о +12.7 +11.4 92 +11 +11 1007.7 1007.4
23 12.06 Ю 4 27 км н/о +12.4 +11.3 93 +10 +10 1007.2 1007.0
00 13.06 ЮЗ 3 5000 м дымка н/о +12.1 +11.4 95 +11 +11 1006.8 1006.6 0.0
01 13.06 ЮЗ 4 3500 м слаб. ливневой дождь н/о +12.5 +11.6 94 +11 +11 1006.4 1006.2
02 13.06 ЮЗ 3 4800 м в посл. час дождь н/о +12.1 +11.4 95 +10 +10 1006.0 1005.8
03 13.06 ЮЗ 4 4800 м дымка н/о +11.7 +10.8 94 +10 +10 1005.7 1005.5
04 13.06 ЮЗ 4 5000 м дымка н/о +11.6 +10.8 95 +9 +9 1005.8 1005.6
05 13.06 ЮЗ 5 8000 м в посл. час дождь н/о +12.1 +10.9 92 +10 +10 1005.8 1005.5
06 13.06 ЮЗ 6 8000 м в посл. час дождь н/о +12.2 +11.1 93 +9 +9 1005.8 1005.6 +11.5 0.0
07 13.06 ЮЗ 6 13 км в посл. час дождь н/о +12.9 +11.9 94 +10 +10 1005.8 1005.5
08 13.06 ЮЗ 7 45 км н/о +13.9 +10.8 82 +12 +12 1005.8 1005.6
09 13.06 ЮЗ 8 35 км н/о +14.5 +10.4 76 +12 +12 1005.8 1005.5
10 13.06 ЮЗ 9 45 км н/о +14.9 +9.4 70 +13 +13 1006.1 1005.8
11 13.06 ЮЗ 9
{13}
35 км н/о +15.8 +10.3 70 +14 +14 1006.1 1005.8
12 13.06 ЮЗ 9
{14}
45 км н/о +16.6 +9.6 63 +15 +15 1006.0 1005.7 0.0
13 13.06 ЮЗ 10
{14}
40 км н/о +15.8 +9.1 64 +14 +14 1006.1 1005.9
14 13.06 ЮЗ 8
{14}
50 км н/о +15.1 +9.7 70 +13 +13 1006.2 1006.0
15 13.06 ЮЗ 8
{14}
45 км н/о +15.7 +9.1 65 +14 +14 1006.2 1005.9
16 13.06 ЮЗ 8
{14}
45 км слаб. ливневой дождь н/о +15.1 +8.5 65 +13 +13 1006.3 1006.1
17 13.06 ЮЗ 9
{14}
40 км в посл. час дождь н/о +15.2 +9.6 69 +13 +13 1006.1 1005.9
18 13.06 ЮЗ 8-13
{13}
40 км н/о +14.9 +9.9 72 +13 +13 1006.4 1006.2 +17.4 0.0
19 13.06 ЮЗ 8
{14}
50 км н/о +14.4 +10.2 76 +12 +12 1006.9 1006.6
20 13.06 ЮЗ 9
{13}
40 км н/о +13.9 +10.3 79 +11 +11 1007.5 1007.2
21 13.06 ЮЗ 7
{13}
40 км н/о +13.8 +10.7 82 +11 +11 1008.3 1008.0
22 13.06 ЮЗ 8 24 км слаб. ливневой дождь н/о +13.1 +11.4 89 +10 +10 1008.8 1008.6
23 13.06 ЮЗ 6 30 км в посл. час дождь н/о +13.4 +11.1 86 +11 +11 1009.0 1008.8
00 14.06 ЮЗ 6 29 км н/о +13.3 +11.1 87 +11 +11 1009.2 1008.9 0.0
01 14.06 ЮЗ 6 35 км н/о +13.3 +11.1 87 +11 +11 1009.2 1008.9
02 14.06 ЮЗ 6 30 км н/о +13.0 +10.9 87 +10 +10 1009.0 1008.7
03 14.06 ЮЗ 5 30 км н/о +13.0 +10.9 87 +11 +11 1009.3 1009.0
04 14.06 ЮЗ 7 35 км н/о +12.9 +10.7 86 +10 +10 1009.4 1009.2
05 14.06 Ю 8 45 км н/о +13.0 +10.8 86 +10 +10 1009.7 1009.5
06 14.06 Ю 7 35 км н/о +13.9 +11.2 84 +12 +12 1010.0 1009.7 +12.7 0.0
07 14.06 ЮЗ 7 35 км н/о +15.1 +11.5 79 +13 +13 1010.4 1010.1
08 14.06 ЮЗ 7 35 км н/о +16.0 +11.2 73 +15 +15 1010.7 1010.5
09 14.06 Ю 7 40 км н/о +17.3 +10.8 66 +16 +16 1010.8 1010.6
10 14.06 ЮЗ 8 35 км н/о +18.2 +10.1 59 +18 +18 1010.8 1010.6
11 14.06 ЮЗ 7 45 км н/о +17.9 +10.4 61 +17 +17 1011.2 1011.0
12 14.06 ЮЗ 8 24 км н/о +18.8 +11.0 60 +19 +19 1011.5 1011.3
13 14.06 ЮЗ 9 40 км н/о +18.4 +10.6 60 +18 +18 1011.9 1011.6
14 14.06 ЮЗ 8 35 км н/о +18.9 +10.4 58 +19 +19 1011.9 1011.7
15 14.06 Ю 8 45 км н/о +18.5 +11.3 63 +18 +18 1012.0 1011.7
16 14.06 ЮЗ 8 50 км н/о +18.8 +10.2 57 +19 +19 1011.8 1011.6
17 14.06 ЮЗ 6 50 км н/о +18.5 +9.7 57 +18 +18 1011.6 1011.4
18 14.06 ЮЗ 5 35 км н/о +18.4 +9.9 58 +18 +18 1011.9 1011.7 +19.8
19 14.06 ЮЗ 4 50 км н/о +17.7 +8.9 56 +17 +17 1012.0 1011.7
20 14.06 ЮЗ 4 45 км н/о +15.5 +10.5 72 +15 +15 1012.3 1012.0
21 14.06 Ю 3 50 км н/о +15.2 +10.7 74 +15 +15 1012.8 1012.5
22 14.06 ЮЗ 3 45 км н/о +14.7 +10.3 75 +14 +14 1012.8 1012.5
23 14.06 ЮЗ 3 50 км н/о +14.7 +10.2 74 +14 +14 1012.7 1012.5
00 15.06 ЮЗ 3 40 км н/о +13.9 +10.9 82 +13 +13 1012.4 1012.2
01 15.06 Ю 1 45 км н/о +13.6 +10.5 82 +14 +14 1012.2 1012.0
02 15.06 З 2 45 км н/о +12.1 +10.3 89 +11 +11 1012.0 1011.7
03 15.06 З 2 50 км н/о +13.1 +9.7 80 +12 +12 1012.1 1011.9
04 15.06 штиль 0 35 км н/о +12.7 +10.4 86 +12 +12 1012.6 1012.4
05 15.06 ЮЗ 1 45 км н/о +13.7 +9.8 77 +14 +14 1012.7 1012.5
06 15.06 ЮЗ 2 45 км в посл. час дождь н/о +13.7 +10.1 79 +13 +13 1012.7 1012.5 +12.1 0.0
07 15.06 ЮЗ 3 21 км н/о +14.6 +10.1 74 +14 +14 1012.9 1012.6
08 15.06 ЮЗ 3 40 км н/о +15.2 +9.9 71 +15 +15 1013.3 1013.1
09 15.06 Ю 4 40 км н/о +16.6 +10.5 67 +16 +16 1013.4 1013.2
10 15.06 ЮВ 3 20 км н/о +18.1 +13.5 74 +18 +18 1013.2 1013.0
11 15.06 ЮЗ 6 35 км слаб. морось с дождем н/о +17.9 +11.0 64 +17 +17 1013.3 1013.1
12 15.06 Ю 7 45 км в посл. час дождь н/о +18.7 +10.3 58 +19 +19 1013.6 1013.3 0.0
13 15.06 ЮЗ 8 45 км н/о +19.9 +9.5 51 +21 +21 комфорт 1013.5 1013.3
14 15.06 ЮЗ 8 50 км н/о +19.6 +9.3 51 +20 +20 1013.5 1013.3
15 15.06 ЮЗ 8 50 км н/о +18.0 +9.4 57 +17 +17 1013.8 1013.6
16 15.06 ЮЗ 8
{13}
45 км н/о +17.9 +10.3 61 +17 +17 1013.7 1013.5
17 15.06 ЮЗ 7 45 км н/о +17.5 +10.7 64 +17 +17 1013.7 1013.5
18 15.06 ЮЗ 8 50 км н/о +16.4 +11.0 70 +15 +15 1014.0 1013.8 +20.5 0.0
19 15.06 ЮЗ 7 50 км н/о +15.1 +11.5 79 +13 +13 1014.1 1013.9
20 15.06 ЮЗ 5 45 км в посл. час дождь н/о +14.1 +12.3 89 +12 +12 1014.2 1014.0
21 15.06 ЮЗ 4 50 км в посл. час дождь н/о +14.4 +12.4 88 +13 +13 1014.5 1014.3
22 15.06 ЮЗ 4 50 км н/о +14.1 +11.8 86 +13 +13 1014.6 1014.3
23 15.06 ЮЗ 5 50 км н/о +13.8 +11.3 85 +12 +12 1014.8 1014.6
00 16.06 ЮЗ 4 45 км н/о +13.7 +11.6 87 +12 +12 1015.3 1015.1 0.0
01 16.06 ЮЗ 4 35 км н/о +12.9 +11.2 89 +11 +11 1015.3 1015.1
02 16.06 ЮЗ 4 35 км н/о +12.6 +10.7 88 +11 +11 1015.7 1015.5
03 16.06 ЮЗ 3 29 км н/о +12.1 +10.5 90 +11 +11 1015.8 1015.6
04 16.06 ЮЗ 3 16 км н/о +11.8 +10.3 91 +10 +10 1016.1 1015.9
05 16.06 ЮЗ 4 30 км н/о +12.3 +10.5 89 +10 +10 1016.2 1015.9
06 16.06 ЮЗ 5 29 км н/о +13.7 +11.5 87 +12 +12 1016.6 1016.4 +11.4 0.0
07 16.06 ЮЗ 7 45 км н/о +14.7 +11.9 83 +13 +13 1017.1 1016.8
08 16.06 ЮЗ 6 45 км н/о +15.7 +12.0 79 +14 +14 1017.0 1016.8
09 16.06 ЮЗ 7 40 км н/о +15.9 +11.3 74 +14 +14 1017.2 1017.0
10 16.06 ЮЗ 9
{13}
30 км н/о +17.4 +13.2 76 +16 +16 1017.4 1017.1
11 16.06 ЮЗ 7 30 км в посл. час дождь н/о +17.9 +12.4 70 +17 +17 1017.2 1016.9
12 16.06 ЮЗ 9
{13}
40 км н/о +17.9 +13.3 74 +17 +17 1017.2 1017.0 0.0
13 16.06 ЮЗ 8-13
{14}
45 км н/о +18.2 +12.6 70 +18 +18 1017.2 1017.0
14 16.06 ЮЗ 8-14
{14}
45 км н/о +18.6 +12.1 66 +18 +18 1017.4 1017.2
15 16.06 ЮЗ 8
{13}
35 км н/о +18.8 +12.2 65 +19 +19 1017.8 1017.5
16 16.06 ЮЗ 8 45 км н/о +18.2 +13.0 72 +18 +18 1018.0 1017.8
17 16.06 ЮЗ 7
{13}
30 км н/о +19.0 +12.6 66 +19 +19 1018.1 1017.8
18 16.06 ЮЗ 6 45 км н/о +18.9 +11.6 63 +19 +19 1018.1 1017.9 +19.4 0.0
19 16.06 ЮЗ 6 50 км н/о +17.6 +11.6 68 +17 +17 1018.5 1018.3
20 16.06 ЮЗ 6 50 км н/о +16.2 +11.1 72 +15 +15 1018.6 1018.3
21 16.06 ЮЗ 6 45 км н/о +15.2 +11.2 77 +14 +14 1018.9 1018.7
22 16.06 ЮЗ 5 35 км н/о +14.5 +11.5 82 +13 +13 1019.0 1018.7
23 16.06 Ю 5 45 км н/о +14.1 +11.4 84 +12 +12 1019.0 1018.8
00 17.06 Ю 5 35 км н/о +14.2 +11.4 83 +13 +13 1019.2 1018.9
01 17.06 Ю 5 40 км н/о +13.7 +11.4 86 +12 +12 1019.2 1018.9
02 17.06 Ю 5 30 км н/о +13.8 +11.6 87 +12 +12 1018.9 1018.7
03 17.06 Ю 4 25 км н/о +13.3 +11.4 88 +12 +12 1018.7 1018.4
04 17.06 Ю 4 30 км н/о +14.0 +11.9 87 +12 +12 1018.8 1018.6
05 17.06 Ю 4 30 км н/о +13.8 +11.9 88 +12 +12 1018.7 1018.5
06 17.06 ЮЗ 4 26 км н/о +14.5 +12.4 87 +13 +13 1019.1 1018.9 +13.2
07 17.06 Ю 3 30 км н/о +15.6 +12.7 83 +15 +15 1019.4 1019.1
08 17.06 ЮЗ 5 30 км н/о +16.8 +12.3 75 +16 +16 1019.1 1018.9
09 17.06 Ю 4 40 км н/о +17.8 +12.8 73 +18 +18 1018.9 1018.7
10 17.06 ЮЗ 6 30 км н/о +19.5 +11.6 60 +20 +20 1018.5 1018.2
11 17.06 ЮЗ 6 35 км н/о +20.3 +12.0 59 +22 +22 комфорт 1018.2 1017.9
12 17.06 ЮЗ 6 24 км н/о +20.9 +11.4 55 +23 +23 комфорт 1018.0 1017.7
13 17.06 ЮЗ 6 40 км н/о +21.0 +10.8 52 +23 +23 комфорт 1017.6 1017.3
14 17.06 ЮЗ 6 40 км н/о +21.8 +11.3 51 +24 +24 комфорт 1017.3 1017.0
15 17.06 ЮЗ 6 30 км н/о +21.3 +10.9 51 +23 +23 комфорт 1016.9 1016.7
16 17.06 ЮЗ 6 22 км н/о +21.3 +11.5 54 +23 +23 комфорт 1016.7 1016.5
17 17.06 ЮЗ 6 35 км н/о +20.6 +10.2 51 +22 +22 комфорт 1016.5 1016.2
18 17.06 ЮЗ 5 50 км н/о +19.2 +9.3 53 +20 +20 1016.4 1016.2 +21.9
19 17.06 ЮЗ 4 50 км н/о +18.2 +9.7 58 +18 +18 1016.4 1016.1
20 17.06 ЮЗ 3 35 км н/о +17.1 +10.3 64 +17 +17 1016.4 1016.2
21 17.06 ЮЗ 3 50 км н/о +15.3 +10.3 72 +15 +15 1016.7 1016.5
22 17.06 ЮЗ 4 45 км н/о +15.4 +10.6 73 +15 +15 1017.0 1016.8
23 17.06 ЮЗ 3 45 км н/о +14.7 +10.7 77 +14 +14 1016.9 1016.6
00 18.06 ЮЗ 2 45 км н/о +14.0 +10.7 80 +13 +13 1016.8 1016.6
01 18.06 З 3 40 км н/о +13.1 +10.8 86 +12 +12 1016.5 1016.3
02 18.06 З 1 18 км н/о +11.0 +8.9 87 +11 +11 1016.1 1015.8
03 18.06 штиль 0 20 км н/о +10.3 +9.0 92 +10 +10 1016.0 1015.8
04 18.06 ЮЗ 2 27 км н/о +12.6 +11.3 92 +12 +12 1016.0 1015.7
05 18.06 ЮЗ 1 25 км н/о +12.9 +11.0 88 +14 +14 1015.7 1015.5
06 18.06 З 1 30 км н/о +14.8 +11.5 81 +15 +15 1015.8 1015.5 +10.3
07 18.06 СВ 1 50 км н/о +16.8 +10.4 66 +18 +18 1015.9 1015.6
08 18.06 ЮВ 2 45 км н/о +16.7 +10.0 65 +17 +17 1015.7 1015.5
09 18.06 ЮВ 3 40 км н/о +17.4 +9.7 61 +18 +18 1015.4 1015.1
10 18.06 ЮВ 2 45 км н/о +18.4 +11.1 62 +19 +19 1015.0 1014.8
11 18.06 ЮВ 3 35 км н/о +18.3 +11.8 66 +19 +19 1015.0 1014.8
12 18.06 В 3 45 км н/о +17.5 +12.2 71 +18 +18 1014.6 1014.4
13 18.06 В 4 28 км н/о +18.2 +13.2 73 +18 +18 1014.2 1014.0
14 18.06 В 2 35 км слаб. ливневой дождь н/о +18.1 +14.2 78 +19 +19 1013.8 1013.5
15 18.06 В 4 26 км в посл. час дождь н/о +18.2 +13.8 75 +18 +18 1013.3 1013.1
17 18.06 В 3 22 км в посл. час дождь н/о +16.5 +13.9 85 +16 +16 1012.1 1011.8
18 18.06 СВ 3 30 км н/о +17.2 +13.9 81 +17 +17 1011.6 1011.3 +19.1 0.0
19 18.06 В 2 45 км в посл. час дождь н/о +16.3 +12.8 80 +16 +16 1011.7 1011.4
20 18.06 СВ 3 35 км н/о +15.1 +12.3 83 +15 +15 1011.0 1010.8
21 18.06 СВ 2 28 км в посл. час дождь н/о +14.5 +12.3 87 +14 +14 1011.1 1010.9
22 18.06 СВ 3 30 км н/о +14.2 +11.9 86 +13 +13 1010.4 1010.1

 

Местоположение метеостанции Шоберинесс (Великобритания): широта 51.55 долгота 0.83 высота над уровнем моря 3 м.

В архиве по умолчанию представлена погода в Шоберинессе за последнюю неделю. Архивные данные за месяц целиком и за предыдущие месяцы, начиная с января 2011 года, Вы можете получить, выбрав интересующий диапазон дат из раскрывающегося списка и нажав кнопку "Ввод!".


*Определитесь, кто Вы:
робот инопланетянин человек

Внимание! Время в таблицах - всемирное. Для получения местного времени необходимо прибавить поправку, которая равна 0 ч.

Смотрите также архив погоды в соседних городах и на ближайших метеорологических станциях:

Погода в Грейвзенде (Великобритания) (38 км)
Погода в Ротамстеде (Великобритания) (43 км)
Погода в Кент (Великобритания) (44 км)
Погода на Аэродроме Andrewsfield (Великобритания) (45 км)
Погода в Заливе Лангдон (Великобритания) (59 км)
Погода в Уоттишаме (Великобритания) (64 км)
Погода в Лондоне (Великобритания) (66 км)
Погода на Аэродроме Кенли (Великобритания) (69 км)
Погода в Херстмонсо (Великобритания) (81 км)
Погода в Норхолте (Великобритания) (86 км)

Пояснения к столбцам:

Ветер - указаны скорость ветра в м/с - средняя за 10 мин, порывы в срок и между сроками (в фигурных скобках) и направление, откуда дует ветер: С - северный, СВ - северо-восточный, В - восточный, ЮВ - юго-восточный, Ю - южный, ЮЗ - юго-западный, З - западный, СЗ - северо-западный.
Видимость - горизонтальная дальность видимости в метрах или километрах. При видимости от 1 до 10 км при отсутствии осадков обычно наблюдается дымка, при ухудшении видимости до 1 км и менее - туман. В сухую погоду видимость может ухудшаться дымом, пылью или мглою.
Явления - указаны атмосферные явления, наблюдавшиеся в срок или в последний час перед сроком; фигурными скобками обозначены явления, наблюдавшиеся между сроками (за 1-3 часа до срока); квадратными скобками обозначены град или гололедные отложения с указанием их диаметра в мм.
Облачность - указаны через наклонную черту общая и нижняя облачность в баллах и высота нижней границы облаков в метрах; квадратными скобками обозначены формы облаков: Ci - перистые, Cs - перисто-слоистые, Cc - перисто-кучевые, Ac - высококучевые, As - высокослоистые, Sc - слоисто-кучевые, Ns - слоисто-дождевые, Cu - кучевые, Cb - кучево-дождевые. Подробнее классификацию облаков см. в Атласе облаков (PDF).
T - Температура воздуха - температура, измеренная на высоте 2 м над землей.
Td - Температура точки росы - температура, при понижении до которой содержащийся в воздухе водяной пар достигнет насыщения.
f - Относительная влажность воздуха - влажноcть воздуха, измеренная на высоте 2 м над землей.
Te - Эффективная температура - температура, которую ощущает одетый по сезону человек в тени. Характеристика душности погоды. При расчете учитывается влияние влажности воздуха и скорости ветра на теплоощущения человека.
Tes - Эффективная температура на солнце - температура, которую ощущает человек, с поправкой на солнечный нагрев. Характеристика знойности погоды. Зависит от высоты солнца над горизонтом, облачности и скорости ветра. Ночью, в пасмурную погоду, а также при ветре 12 м/с и более поправка равна нулю.
P - Атмосферное давление - приведенное к уровню моря атмосферное давление.
Po - Атмосферное давление - измеренное на уровне метеостанции атмосферное давление.
Tmin - Минимальная температура - минимум температуры воздуха на высоте 2 м над землей.
Tmax - Максимальная температура - максимум температуры воздуха на высоте 2 м над землей.
R - Количество осадков - Количество выпавших осадков за период времени, мм. При наведении курсора мыши на число - период времени, за который выпало указанное количество осадков.
R24 - Количество осадков - Количество выпавших осадков за 24 часа, мм.
S - Снежный покров - Высота снежного покрова, см. При наведении курсора мыши на число - состояние снежного покрова и степень покрытия местности в баллах.